Terminal Aerodrome Forecast
Issued by NWS

Home | Current Version | Previous Version | Text Only | Print | Product List | Glossary On
Versions: 1 2 3 4 5 6 7 8 9 10 11 12 13 14 15 16
000
FTUS44 KSJT 252300
TAFJCT
TAF
KJCT 252337Z 2600/2624 16010KT P6SM BKN250
     FM260900 17006KT P6SM SCT015
      TEMPO 2611/2615 BKN015
     FM261600 18009KT P6SM BKN250=

USA.gov is the U.S. government's official web portal to all federal, state and local government web resources and services.